User: anonymous
Location: Sperry Observatory
(40.6664°N, 74.3236°W)
Time: 01:29:39
(UTC-04:00)
Language:

JAS-2 - Orbit

View from above orbital plane
View from above orbital plane
View from above satellite
View from above satellite

Ground track
Ground track

The orbit data is extracted from the following two-line orbital elements,

1 24278U 96046B   14105.29333600  .00000006  00000-0  38227-4 0  3508
2 24278 098.5160 127.8238 0351597 100.8495 322.6458 13.53020560872161
Epoch (UTC): 15 April 2014 07:02:24
Eccentricity: 0.0351597
inclination: 98.5160°
perigee height: 799 km
apogee height: 1323 km
right ascension of ascending node: 127.8238°
argument of perigee: 100.8495°
revolutions per day: 13.53020560
mean anomaly at epoch: 322.6458°
orbit number at epoch: 87216

The dashed part of the orbit path shows where the satellite is in the earth's shadow,  

DLR